CW5066 Weather Reports


time (UTC)temp
C
wind
direction
speed
KPH
gust
KPH
rain 1hr
cm
rain 24hr
cm
rain mn
cm
humidity
%
barometer
mb
20260905185536 21 23 3.2 9.7 0.00 0.00 0.00 36 1029.3
20260905184516 22 68 4.8 14.5 0.00 0.00 0.00 35 1029.2
20260905183515 22 23 4.8 12.9 0.00 0.00 0.00 35 1029.3
20260905182516 22 45 4.8 14.5 0.00 0.00 0.00 33 1029.3
20260905181516 22 113 3.2 11.3 0.00 0.00 0.00 32 1029.4
20260905180516 22 338 1.6 9.7 0.00 0.00 0.00 32 1029.9
20260905175515 21 0 4.8 12.9 0.00 0.00 0.00 32 1029.4
20260905174516 21 338 6.4 14.5 0.00 0.00 0.00 32 1029.4
20260905173516 22 0 3.2 8.0 0.00 0.00 0.00 32 1030.4
20260905172516 21 338 6.4 16.1 0.00 0.00 0.00 33 1029.7
20260905171516 21 338 6.4 16.1 0.00 0.00 0.00 33 1029.7
20260905170515 21 23 4.8 14.5 0.00 0.00 0.00 34 1029.6
20260905165515 20 68 3.2 8.0 0.00 0.00 0.00 32 1029.0
20260905164515 20 113 1.6 6.4 0.00 0.00 0.00 32 1028.9
20260905163515 20 293 4.8 9.7 0.00 0.00 0.00 35 1029.7
20260905162515 19 270 3.2 11.3 0.00 0.00 0.00 36 1028.9
20260905161515 19 293 8.0 17.7 0.00 0.00 0.00 36 1028.8
20260905160515 18 270 6.4 14.5 0.00 0.00 0.00 37 1028.8
20260905155515 18 270 8.0 20.9 0.00 0.00 0.00 37 1029.0
20260905154538 18 270 9.7 17.7 0.00 0.00 0.00 37 1028.2
20260905153517 18 270 9.7 20.9 0.00 0.00 0.00 37 1028.4
20260905152517 18 248 6.4 14.5 0.00 0.00 0.00 38 1028.2
20260905151517 17 270 8.0 20.9 0.00 0.00 0.00 39 1028.1
20260905150517 17 270 6.4 14.5 0.00 0.00 0.00 40 1028.2
20260905145517 17 270 8.0 20.9 0.00 0.00 0.00 41 1027.8
20260905144517 16 248 8.0 22.5 0.00 0.00 0.00 42 1027.9
20260905143517 16 270 6.4 16.1 0.00 0.00 0.00 42 1027.9
20260905142557 16 248 8.0 22.5 0.00 0.00 0.00 43 1027.9
20260905141517 15 225 4.8 12.9 0.00 0.00 0.00 44 1027.1
20260905140517 15 225 4.8 14.5 0.00 0.00 0.00 45 1027.8
20260905135517 15 225 4.8 8.0 0.00 0.00 0.00 45 1027.8
20260905134517 15 225 4.8 12.9 0.00 0.00 0.00 45 1027.6
20260905133517 14 225 4.8 8.0 0.00 0.00 0.00 45 1028.2
20260905132517 14 225 4.8 9.7 0.00 0.00 0.00 45 1028.2
20260905131517 14 225 6.4 14.5 0.00 0.00 0.00 44 1028.1
20260905130517 14 225 4.8 9.7 0.00 0.00 0.00 44 1028.7
20260905125517 14 225 4.8 9.7 0.00 0.00 0.00 44 1028.6
20260905124517 14 248 3.2 12.9 0.00 0.00 0.00 44 1028.3
20260905123516 14 248 3.2 9.7 0.00 0.00 0.00 43 1028.4
20260905122517 15 270 3.2 8.0 0.00 0.00 0.00 42 1028.2
20260905121517 15 248 3.2 8.0 0.00 0.00 0.00 42 1028.2
20260905120516 15 270 3.2 6.4 0.00 0.00 0.00 42 1029.4
20260905115516 14 270 4.8 8.0 0.00 0.00 0.00 42 1029.4
20260905114516 14 225 3.2 6.4 0.00 0.00 0.00 42 1029.4
20260905113517 15 203 4.8 8.0 0.00 0.00 0.00 41 1028.8
20260905112536 15 248 3.2 8.0 0.00 0.00 0.00 41 1028.7
20260905111536 15 248 1.6 6.4 0.00 0.00 0.00 42 1028.8
20260905110537 15 270 4.8 9.7 0.00 0.00 0.00 42 1029.2
20260905105517 15 270 3.2 8.0 0.00 0.00 0.00 42 1029.2
20260905104536 15 270 4.8 8.0 0.00 0.00 0.00 42 1029.1
20260905103516 15 270 4.8 8.0 0.00 0.00 0.00 42 1028.5
20260905102516 15 248 3.2 9.7 0.00 0.00 0.00 43 1028.5
20260905101516 15 248 3.2 6.4 0.00 0.00 0.00 44 1028.4
20260905100516 15 225 3.2 6.4 0.00 0.00 0.00 43 1029.0
20260905095516 15 270 4.8 8.0 0.00 0.00 0.00 44 1029.0
20260905094516 15 248 3.2 4.8 0.00 0.00 0.00 44 1029.0
20260905093516 15 248 1.6 6.4 0.00 0.00 0.00 44 1029.6
20260905092516 15 270 1.6 4.8 0.00 0.00 0.00 45 1029.6
20260905091516 15 0.0 3.2 0.00 0.00 0.00 46 1029.6
20260905090516 15 225 1.6 3.2 0.00 0.00 0.00 46 1029.7
20260905085516 15 135 1.6 3.2 0.00 0.00 0.00 47 1029.6
20260905084516 15 0.0 0.0 0.00 0.00 0.00 46 1029.4
20260905083516 15 203 1.6 4.8 0.00 0.00 0.00 47 1030.7
20260905082536 15 158 3.2 4.8 0.00 0.00 0.00 48 1030.6
20260905081516 15 158 3.2 6.4 0.00 0.00 0.00 48 1030.6
20260905080516 15 135 3.2 6.4 0.00 0.00 0.00 47 1030.0
20260905075536 15 180 6.4 11.3 0.00 0.00 0.00 46 1030.5
20260905074536 15 180 4.8 8.0 0.00 0.00 0.00 45 1030.5
20260905073516 15 180 3.2 4.8 0.00 0.00 0.00 45 1029.5
20260905072516 15 180 3.2 4.8 0.00 0.00 0.00 45 1029.4
20260905071516 15 0.0 3.2 0.00 0.00 0.00 45 1029.2
20260905070516 15 0.0 1.6 0.00 0.00 0.00 45 1029.2
20260905065515 15 0.0 3.2 0.00 0.00 0.00 45 1029.3
20260905064516 15 0.0 3.2 0.00 0.00 0.00 45 1029.4
20260905063516 15 0.0 1.6 0.00 0.00 0.00 45 1028.8
20260905062516 15 180 1.6 3.2 0.00 0.00 0.00 46 1028.2
20260905061515 15 180 1.6 3.2 0.00 0.00 0.00 46 1028.4
20260905060515 15 180 1.6 1.6 0.00 0.00 0.00 46 1027.7
20260905055536 15 0.0 3.2 0.00 0.00 0.00 46 1027.6
20260905054517 15 135 1.6 3.2 0.00 0.00 0.00 46 1027.7
20260905053517 15 0.0 3.2 0.00 0.00 0.00 45 1027.7
20260905052537 15 0 3.2 6.4 0.00 0.00 0.00 45 1027.6
20260905051516 15 0 6.4 11.3 0.00 0.00 0.00 45 1027.6
20260905050536 15 0 4.8 11.3 0.00 0.00 0.00 45 1026.9
20260905045516 15 0 6.4 12.9 0.00 0.00 0.00 45 1026.9
20260905044516 15 0 6.4 12.9 0.00 0.00 0.00 45 1027.0
20260905043516 15 0 4.8 12.9 0.00 0.00 0.00 46 1026.5
20260905042516 15 0 4.8 12.9 0.00 0.00 0.00 47 1026.5
20260905041516 15 23 4.8 9.7 0.00 0.00 0.00 47 1026.6
20260905040536 16 0 4.8 9.7 0.00 0.00 0.00 47 1026.7
20260905035556 16 0.0 3.2 0.00 0.00 0.00 45 1026.8
20260905034516 16 338 1.6 4.8 0.00 0.00 0.00 46 1027.0
20260905033516 16 23 3.2 6.4 0.00 0.00 0.00 45 1026.5
20260905032516 16 45 1.6 4.8 0.00 0.00 0.00 44 1026.5
20260905031516 16 23 1.6 8.0 0.00 0.00 0.00 44 1026.3
20260905030516 16 45 1.6 4.8 0.00 0.00 0.00 44 1025.6
20260905025536 16 45 3.2 11.3 0.00 0.00 0.00 44 1025.6
20260905024516 16 45 1.6 9.7 0.00 0.00 0.00 44 1025.6
20260905023516 16 45 1.6 4.8 0.00 0.00 0.00 44 1024.8
20260905022516 16 23 1.6 6.4 0.00 0.00 0.00 43 1024.7
20260905021516 16 23 1.6 4.8 0.00 0.00 0.00 43 1024.6
20260905020516 17 0.0 3.2 0.00 0.00 0.00 42 1024.7
20260905015516 17 45 1.6 4.8 0.00 0.00 0.00 41 1024.5
20260905014516 17 23 1.6 4.8 0.00 0.00 0.00 40 1025.0
20260905013515 18 0.0 3.2 0.00 0.00 0.00 39 1025.1
20260905012515 18 0.0 4.8 0.00 0.00 0.00 38 1025.1
20260905011515 19 0.0 3.2 0.00 0.00 0.00 36 1025.7
20260905010515 20 45 1.6 4.8 0.00 0.00 0.00 35 1026.2
20260905005516 20 23 1.6 6.4 0.00 0.00 0.00 32 1026.0
20260905004535 21 68 1.6 9.7 0.00 0.00 0.00 31 1026.0
20260905003515 21 23 1.6 3.2 0.00 0.00 0.00 30 1026.4
20260905002516 21 23 1.6 6.4 0.00 0.00 0.00 31 1026.5
20260905001515 21 68 1.6 4.8 0.00 0.00 0.00 30 1026.2
20260905000515 22 45 1.6 6.4 0.00 0.00 0.00 29 1026.2
20260904235515 22 68 1.6 6.4 0.00 0.00 0.00 29 1026.6
20260904234555 22 90 1.6 8.0 0.00 0.00 0.00 28 1026.5
20260904233515 23 23 1.6 6.4 0.00 0.00 0.00 28 1027.0
20260904232515 22 45 1.6 8.0 0.00 0.00 0.00 29 1026.4
20260904231515 22 23 1.6 8.0 0.00 0.00 0.00 29 1026.3
20260904230537 22 0.0 4.8 0.00 0.00 0.00 29 1026.2
20260904225537 22 0.0 4.8 0.00 0.00 0.00 28 1026.2
20260904224517 22 23 1.6 8.0 0.00 0.00 0.00 29 1026.3
20260904223517 22 90 3.2 8.0 0.00 0.00 0.00 28 1026.8
20260904222517 21 0.0 3.2 0.00 0.00 0.00 30 1026.5
20260904221517 21 45 1.6 6.4 0.00 0.00 0.00 30 1026.3
20260904220537 22 68 3.2 12.9 0.00 0.00 0.00 28 1026.2
20260904215517 22 68 1.6 4.8 0.00 0.00 0.00 29 1026.1
20260904214557 22 68 3.2 12.9 0.00 0.00 0.00 28 1026.1
20260904213517 22 68 1.6 8.0 0.00 0.00 0.00 28 1026.8
20260904212517 22 113 3.2 9.7 0.00 0.00 0.00 27 1026.8
20260904211517 23 45 1.6 4.8 0.00 0.00 0.00 26 1026.8
20260904210517 23 45 3.2 14.5 0.00 0.00 0.00 26 1026.7
20260904205517 24 90 3.2 11.3 0.00 0.00 0.00 25 1027.4
20260904204517 24 23 3.2 9.7 0.00 0.00 0.00 25 1027.5
20260904203517 23 23 3.2 11.3 0.00 0.00 0.00 25 1027.5
20260904202517 24 68 1.6 9.7 0.00 0.00 0.00 25 1027.6
20260904201517 25 0 1.6 6.4 0.00 0.00 0.00 24 1028.2
20260904200516 26 23 6.4 19.3 0.00 0.00 0.00 22 1029.4
20260904195517 26 45 1.6 9.7 0.00 0.00 0.00 23 1029.5
20260904194517 26 23 4.8 14.5 0.00 0.00 0.00 23 1029.6
20260904193516 25 90 8.0 25.7 0.00 0.00 0.00 24 1029.8
20260904192517 24 23 8.0 22.5 0.00 0.00 0.00 25 1029.0
20260904191516 23 45 3.2 8.0 0.00 0.00 0.00 26 1028.5
20260904190517 23 23 1.6 8.0 0.00 0.00 0.00 25 1028.5